Home   Weather   Vejle   Past weeks

Flag for Denmark Past Weather in Vejle, Denmark — Yesterday and Last 2 Weeks

Now
45 °F

Partly cloudy.


Feels Like: 40 °F
Forecast: 37 / 44 °F
Wind: 8 mph from Southeast

Location: Billund Lufthavn

Current Time: Feb 27, 2017 at 7:32:23 pm

Latest Report: Feb 27, 2017 at 6:50 pm


Visibility: 4 mi

Pressure: 29.21 "Hg

Humidity: 100%

Dew Point: 45 °F

Location of VejleLocation

Past Weather in Vejle — Graph

°F

Vejle Temperature Yesterday

Maximum temperature yesterday: 45 °F (at 11:50 am)
Minimum temperature yesterday: 43 °F (at 12:20 am)
Average temperature yesterday: 43 °F

High & Low Weather Summary for the Past Weeks

 TemperatureHumidityPressure
High46 °F (Feb 20, 12:50 pm)100% (Feb 13, 10:20 pm)30.69 "Hg (Feb 13, 10:20 pm)
Low19 °F (Feb 15, 5:20 am)53% (Feb 15, 2:50 pm)28.88 "Hg (Feb 23, 6:50 pm)
Average38 °F92%29.89 "Hg
* Reported Feb 12 6:20 pm — Feb 27 6:20 pm, Vejle, Weather by CustomWeather, © 2017

Note: Actual official high and low records may vary slightly from our data, if they occured in-between our weather recording intervals... More about our weather records

Advertising

Vejle Weather History for the Previous 24 Hours

Scroll right to see more
 ConditionsComfort  
Time TempWeatherWind HumidityBarometerVisibility
6:20 pm
Mon, Feb 27
45 °FLight rain. Fog.7 mph100%29.24 "Hg1 mi
5:59 pm45 °FLight rain. Fog.8 mph100%29.24 "Hg1 mi
5:20 pm46 °FLight rain. Partly sunny.10 mph93%29.27 "Hg3 mi
4:50 pm46 °FPartly sunny.8 mph93%29.30 "HgN/A
4:20 pm46 °FBroken clouds.9 mph93%29.30 "Hg5 mi
3:50 pm45 °FLight rain. Fog.7 mph100%29.33 "Hg1 mi
3:20 pm45 °FLight rain. Fog.8 mph100%29.36 "Hg1 mi
2:50 pm46 °FLight rain. Fog.10 mph93%29.36 "Hg1 mi
2:20 pm46 °FLight rain. Fog.10 mph93%29.36 "Hg1 mi
1:50 pm46 °FLight rain. Fog.12 mph93%29.39 "Hg1 mi
1:20 pm46 °FLight rain. Partly sunny.13 mph93%29.39 "Hg3 mi
12:50 pm46 °FLight rain. Partly sunny.15 mph93%29.42 "Hg3 mi
12:20 pm46 °FLight rain. Partly sunny.16 mph93%29.42 "Hg3 mi
11:50 am46 °FLight rain. Partly sunny.13 mph93%29.42 "Hg4 mi
11:20 am46 °FLight rain. Partly sunny.16 mph93%29.45 "Hg4 mi
10:50 am46 °FLight rain. Partly sunny.13 mph93%29.45 "Hg3 mi
10:20 am45 °FLight rain. Fog.14 mph100%29.45 "Hg1 mi
9:50 am45 °FLight rain. Fog.10 mph100%29.45 "Hg2 mi
9:20 am45 °FLight rain. Partly sunny.13 mph100%29.47 "Hg5 mi
9:02 am45 °FLight rain. Partly sunny.13 mph100%29.47 "Hg4 mi
8:32 am45 °FFog.15 mph93%29.47 "Hg3 mi
8:20 am43 °FDrizzle. Partly sunny.14 mph100%29.47 "Hg5 mi
7:50 am43 °FFog.13 mph100%29.47 "Hg2 mi
7:20 am43 °FPartly sunny.14 mph100%29.47 "Hg3 mi
6:50 am43 °FPassing clouds.14 mph100%29.47 "Hg3 mi
6:20 am43 °FLow clouds.16 mph100%29.50 "Hg4 mi
5:50 am43 °FLow clouds.16 mph100%29.50 "Hg5 mi
5:20 am43 °FLow clouds.17 mph100%29.50 "Hg4 mi
4:50 am43 °FLow clouds.16 mph100%29.50 "Hg3 mi
4:20 am43 °FSprinkles. Fog.17 mph100%29.50 "Hg3 mi
3:50 am45 °FFog.20 mph93%29.50 "Hg2 mi
3:20 am45 °FSprinkles. Low clouds.16 mph93%29.50 "HgN/A
2:50 am45 °FDrizzle. Low clouds.16 mph93%29.50 "Hg3 mi
2:20 am45 °FLow clouds.17 mph93%29.53 "HgN/A
1:50 am45 °FLow clouds.17 mph93%29.53 "HgN/A
1:20 am45 °FLow clouds.14 mph93%29.53 "Hg6 mi
12:50 am45 °FLow clouds.16 mph93%29.53 "Hg5 mi
12:20 am45 °FLow clouds.16 mph93%29.53 "Hg4 mi
11:50 pm
Sun, Feb 26
45 °FLow clouds.15 mph93%29.53 "Hg4 mi
11:20 pm45 °FDrizzle. Low clouds.17 mph93%29.53 "Hg3 mi
10:50 pm45 °FLight rain. Fog.16 mph100%29.56 "Hg2 mi
10:20 pm43 °FLight rain. Fog.13 mph100%29.56 "Hg1 mi
9:50 pm43 °FFog.13 mph100%29.56 "Hg1 mi
9:20 pm43 °FFog.12 mph100%29.59 "Hg1 mi
8:50 pm43 °FLow clouds.9 mph100%29.59 "Hg4 mi
8:20 pm43 °FFog.9 mph100%29.59 "Hg3 mi
7:50 pm43 °FFog.12 mph100%29.59 "Hg1 mi
7:20 pm43 °FFog.12 mph100%29.59 "Hg1 mi
Weather by CustomWeather, © 2017

See weather overviewHow to use our weather pages